Tracking 29065 objects as of 22-Jul-2024
HD Live streaming from Space Station
objects crossing your sky now

COSMOS 397 DEB

Track COSMOS 397 DEB now!
10-day predictions


NORAD ID: 6844
Int'l Code: 1971-015CL
Perigee: 550.1 km
Apogee: 1,413.2 km
Inclination: 65.9 °
Period: 104.6 minutes
Semi major axis: 7352 km
RCS: 0.0356 m2 (small)
Launch date: February 25, 1971
Source: Commonwealth of Independent States (former USSR) (CIS)
Launch site: TYURATAM MISSILE AND SPACE COMPLEX (TTMTR)

Note: This is SATELLITE DEBRIS
Your satellite tracking list
Your tracking list is empty




NASA's NSSDC Master Catalog

Two Line Element Set (TLE):
1 06844U 71015CL  24203.94404460  .00006958  00000-0  19389-2 0  9998
2 06844  65.8990 158.2925 0586966 111.9140 254.5375 13.77003870524491
Source of the keplerian elements: AFSPC